RYR43ZZ LOWW-ESSA

Flight info

Callsign RYR43ZZ
Flight time N/A
Altitude 36000
Route LEDVA DCT KATQA DCT VAGON DCT XIDNA DCT BEZMI DCT PENOR/N0449F370 DCT VSB/N0451F360 DCT ROGMI/N0451F370 Z229 NILUG
Aircraft A320/M-SDE3FGHIRWY/LB1

Departure

Time 2026-04-26 14:48
Airport Vienna International Airport (LOWW)

Arrival

Time N/A
Airport Stockholm-Arlanda Airport (ESSA)
Time Latitude Longitude Altitude Speed Heading
2026-04-26 14:32 48.11464 16.57013 609 ft 0 kts 205°
2026-04-26 14:44 48.11456 16.57008 620 ft 6 kts 205°
2026-04-26 14:44 48.11397 16.56987 616 ft 7 kts 130°
2026-04-26 14:45 48.11376 16.57044 616 ft 6 kts 120°
2026-04-26 14:45 48.11366 16.57075 615 ft 5 kts 116°
2026-04-26 14:45 48.11351 16.57121 620 ft 5 kts 116°
2026-04-26 14:45 48.11324 16.57204 614 ft 11 kts 116°
2026-04-26 14:46 48.11285 16.57287 611 ft 9 kts 150°
2026-04-26 14:46 48.11233 16.57273 622 ft 9 kts 204°
2026-04-26 14:46 48.11159 16.57219 620 ft 13 kts 206°
2026-04-26 14:46 48.11089 16.57158 616 ft 11 kts 220°
2026-04-26 14:47 48.11072 16.57067 609 ft 8 kts 278°
2026-04-26 14:47 48.11088 16.56994 614 ft 6 kts 293°
2026-04-26 14:47 48.11144 16.56830 618 ft 46 kts 297°
2026-04-26 14:47 48.11385 16.56094 609 ft 109 kts 296°
2026-04-26 14:48 48.11797 16.54832 615 ft 157 kts 296°
2026-04-26 14:48 48.12286 16.53410 1241 ft 149 kts 290°
2026-04-26 14:48 48.12249 16.51860 1834 ft 157 kts 265°
2026-04-26 14:48 48.12014 16.50143 2105 ft 179 kts 266°
2026-04-26 14:49 48.11772 16.48192 2391 ft 201 kts 268°
2026-04-26 14:49 48.11921 16.46059 2670 ft 217 kts 297°
2026-04-26 14:49 48.12920 16.44340 3038 ft 233 kts 333°
2026-04-26 14:49 48.14515 16.43904 3715 ft 243 kts
2026-04-26 14:50 48.16149 16.44668 4546 ft 249 kts 18°
2026-04-26 14:50 48.17773 16.45621 5410 ft 253 kts 18°
2026-04-26 14:50 48.19417 16.46626 6242 ft 256 kts 17°
2026-04-26 14:50 48.21056 16.47635 7031 ft 260 kts 16°
2026-04-26 14:51 48.22737 16.48662 7801 ft 264 kts 16°
2026-04-26 14:51 48.24451 16.49700 8580 ft 267 kts 16°
2026-04-26 14:51 48.26193 16.50751 9376 ft 270 kts 16°
2026-04-26 14:51 48.27949 16.51804 10140 ft 274 kts 16°
2026-04-26 14:52 48.29781 16.52893 10471 ft 293 kts 17°
2026-04-26 14:52 48.31745 16.54054 10650 ft 316 kts 17°
2026-04-26 14:52 48.33870 16.55311 10805 ft 339 kts 17°
2026-04-26 14:52 48.36140 16.56662 10930 ft 360 kts 18°
2026-04-26 14:53 48.38525 16.58093 11110 ft 376 kts 18°
2026-04-26 14:53 48.40976 16.59572 11612 ft 382 kts 18°
2026-04-26 14:53 48.43454 16.61071 12203 ft 385 kts 18°
2026-04-26 14:53 48.45956 16.62586 12804 ft 389 kts 18°
2026-04-26 14:54 48.48478 16.64115 13388 ft 392 kts 18°
2026-04-26 14:54 48.51019 16.65656 13984 ft 396 kts 18°
2026-04-26 14:54 48.53582 16.67208 14528 ft 398 kts 18°
2026-04-26 14:54 48.56159 16.68764 15057 ft 400 kts 18°
2026-04-26 14:55 48.58751 16.70333 15557 ft 402 kts 18°
2026-04-26 14:55 48.61357 16.71916 16042 ft 405 kts 18°
2026-04-26 14:55 48.63977 16.73510 16509 ft 407 kts 18°
2026-04-26 14:55 48.66613 16.75115 16971 ft 410 kts 18°
2026-04-26 14:56 48.69263 16.76726 17418 ft 412 kts 18°
2026-04-26 14:56 48.71870 16.78610 17837 ft 419 kts 26°
2026-04-26 14:56 48.74267 16.81181 18280 ft 428 kts 35°
2026-04-26 14:56 48.76414 16.84351 18691 ft 433 kts 40°
2026-04-26 14:57 48.78524 16.87629 19037 ft 435 kts 40°
2026-04-26 14:57 48.80644 16.90914 19362 ft 438 kts 40°
2026-04-26 14:57 48.82781 16.94221 19683 ft 440 kts 40°
2026-04-26 14:57 48.84931 16.97550 19993 ft 442 kts 40°
2026-04-26 14:58 48.87090 17.00897 20290 ft 445 kts 40°
2026-04-26 14:58 48.89263 17.04268 20576 ft 447 kts 40°
2026-04-26 14:58 48.91439 17.07654 20847 ft 450 kts 40°
2026-04-26 14:58 48.93593 17.11017 21160 ft 451 kts 40°
2026-04-26 14:59 48.95812 17.14483 21450 ft 453 kts 40°
2026-04-26 14:59 48.98091 17.17687 21709 ft 450 kts 32°
2026-04-26 14:59 49.00686 17.20296 21968 ft 445 kts 23°
2026-04-26 14:59 49.02567 17.21651 22138 ft 442 kts 17°
2026-04-26 15:00 49.06459 17.23338 22461 ft 437 kts
2026-04-26 15:00 49.09464 17.23764 22695 ft 434 kts 356°
2026-04-26 15:00 49.12482 17.23636 22948 ft 434 kts 354°
2026-04-26 15:00 49.15495 17.23472 23231 ft 434 kts 354°
2026-04-26 15:01 49.18522 17.23308 23479 ft 435 kts 354°
2026-04-26 15:01 49.21559 17.23144 23689 ft 437 kts 354°
2026-04-26 15:01 49.24597 17.22980 23887 ft 439 kts 354°
2026-04-26 15:01 49.27655 17.22815 24069 ft 439 kts 354°
2026-04-26 15:02 49.30713 17.22653 24309 ft 439 kts 354°
2026-04-26 15:02 49.33774 17.22492 24553 ft 439 kts 354°
2026-04-26 15:02 49.36820 17.22332 24834 ft 437 kts 354°
2026-04-26 15:02 49.39840 17.22173 25148 ft 435 kts 354°
2026-04-26 15:03 49.42865 17.22010 25414 ft 434 kts 353°
2026-04-26 15:03 49.45886 17.21842 25639 ft 434 kts 354°
2026-04-26 15:03 49.48903 17.21675 25856 ft 435 kts 353°
2026-04-26 15:03 49.51934 17.21508 26095 ft 435 kts 353°
2026-04-26 15:04 49.54964 17.21341 26349 ft 435 kts 353°
2026-04-26 15:04 49.57983 17.21179 26615 ft 435 kts 353°
2026-04-26 15:04 49.61010 17.21020 26939 ft 434 kts 353°
2026-04-26 15:04 49.64027 17.20861 27241 ft 433 kts 353°
2026-04-26 15:05 49.67027 17.20700 27523 ft 432 kts 353°
2026-04-26 15:05 49.69026 17.20590 27711 ft 432 kts 353°
2026-04-26 15:05 49.73040 17.20366 28083 ft 432 kts 353°
2026-04-26 15:05 49.76044 17.20198 28367 ft 432 kts 353°
2026-04-26 15:06 49.79038 17.20030 28655 ft 431 kts 352°
2026-04-26 15:06 49.82039 17.19862 28946 ft 431 kts 352°
2026-04-26 15:06 49.85030 17.19692 29232 ft 431 kts 352°
2026-04-26 15:06 49.88030 17.19526 29528 ft 431 kts 352°
2026-04-26 15:07 49.94014 17.19207 30134 ft 430 kts 352°
2026-04-26 15:07 49.97008 17.19049 30422 ft 430 kts 352°
2026-04-26 15:07 49.99960 17.18889 30666 ft 430 kts 352°
2026-04-26 15:08 50.02982 17.18721 30912 ft 430 kts 352°
2026-04-26 15:08 50.05934 17.18555 31198 ft 429 kts 352°
2026-04-26 15:08 50.08913 17.18387 31512 ft 427 kts 352°
2026-04-26 15:08 50.11873 17.18223 31797 ft 426 kts 352°
2026-04-26 15:09 50.14838 17.18059 32019 ft 426 kts 352°
2026-04-26 15:09 50.17812 17.17893 32216 ft 428 kts 352°
2026-04-26 15:09 50.20782 17.17728 32440 ft 428 kts 352°
2026-04-26 15:09 50.23762 17.17563 32669 ft 428 kts 352°
2026-04-26 15:10 50.26743 17.17396 32904 ft 428 kts 352°
2026-04-26 15:10 50.28714 17.17285 33065 ft 428 kts 352°
2026-04-26 15:10 50.32690 17.17059 33437 ft 427 kts 352°
2026-04-26 15:10 50.35658 17.16890 33703 ft 426 kts 352°
2026-04-26 15:11 50.38623 17.16719 33962 ft 426 kts 352°
2026-04-26 15:11 50.41587 17.16552 34180 ft 426 kts 352°
2026-04-26 15:11 50.47480 17.16225 34269 ft 426 kts 352°
2026-04-26 15:12 50.53396 17.15899 34269 ft 425 kts 352°
2026-04-26 15:12 50.59291 17.15571 34269 ft 423 kts 352°
2026-04-26 15:13 50.65206 17.15232 34269 ft 422 kts 352°
2026-04-26 15:13 50.71048 17.14887 34269 ft 422 kts 352°
2026-04-26 15:14 50.76921 17.14548 34269 ft 423 kts 352°
2026-04-26 15:14 50.82767 17.14217 34272 ft 418 kts 351°
2026-04-26 15:15 50.88602 17.13889 34273 ft 421 kts 352°
2026-04-26 15:15 50.94455 17.13549 34272 ft 421 kts 352°
2026-04-26 15:16 51.00314 17.13214 34273 ft 422 kts 352°
2026-04-26 15:16 51.05178 17.12926 34259 ft 419 kts 351°
2026-04-26 15:17 51.10994 17.12591 34276 ft 417 kts 351°
2026-04-26 15:17 51.16798 17.12258 34275 ft 417 kts 351°
2026-04-26 15:18 51.22625 17.11911 34343 ft 421 kts 351°
2026-04-26 15:18 51.25558 17.11737 34462 ft 423 kts 351°
2026-04-26 15:18 51.28500 17.11567 34611 ft 423 kts 351°
2026-04-26 15:19 51.31423 17.11239 34727 ft 418 kts 345°
2026-04-26 15:19 51.34279 17.10421 34846 ft 417 kts 343°
2026-04-26 15:19 51.37128 17.09576 34968 ft 417 kts 343°
2026-04-26 15:19 51.39981 17.08730 35099 ft 417 kts 343°
2026-04-26 15:20 51.42830 17.07878 35221 ft 417 kts 343°
2026-04-26 15:20 51.45681 17.07023 35348 ft 417 kts 343°